PST,Max TemperatureF,Mean TemperatureF,Min TemperatureF,Max Dew PointF,MeanDew PointF,Min DewpointF,Max Humidity, Mean Humidity, Min Humidity, Max Sea Level PressureIn, Mean Sea Level PressureIn, Min Sea Level PressureIn, Max VisibilityMiles, Mean VisibilityMiles, Min VisibilityMiles, Max Wind SpeedMPH, Mean Wind SpeedMPH, Max Gust SpeedMPH,PrecipitationIn, CloudCover, Events, WindDirDegrees
2014-2-1,26,18,10,12,9,7,84,70,55,30.30,30.25,30.22,10,10,7,20,7,26,0.00,1,,353
2014-2-2,28,20,12,16,13,7,80,68,55,30.23,30.12,30.04,10,10,10,21,10,26,0.00,8,,349
2014-2-3,28,24,20,12,9,6,62,52,42,30.34,30.18,30.06,10,10,10,23,14,31,0.00,7,,354
2014-2-4,26,19,11,8,5,-3,67,54,40,30.62,30.48,30.35,10,10,5,20,12,27,T,5,Snow,2
2014-2-5,20,10,0,-5,-9,-11,60,43,25,30.71,30.64,30.57,10,10,10,16,9,20,0.00,0,,349
2014-2-6,18,8,-2,3,-4,-11,67,57,46,30.56,30.28,29.94,10,10,10,15,10,23,0.00,2,,355
2014-2-7,23,15,7,10,7,3,83,69,54,30.04,29.98,29.84,10,8,2,18,7,22,T,6,Snow,350
2014-2-8,25,19,12,7,6,4,76,61,46,30.28,30.17,30.04,10,10,10,20,14,27,0.00,1,,342
2014-2-9,28,22,16,18,14,7,80,71,61,30.27,30.21,30.11,10,8,2,20,7,25,T,8,Snow,81
2014-2-10,30,26,21,22,19,16,88,76,63,30.28,30.19,30.05,10,6,0,17,7,21,0.08,8,Fog-Snow,194
2014-2-11,31,28,25,28,23,21,92,82,72,30.18,30.02,29.77,10,6,2,9,3,,0.12,7,Snow,199
2014-2-12,57,44,30,36,27,12,92,55,17,29.73,29.62,29.47,10,10,6,18,9,28,0.18,2,Rain,172
2014-2-13,51,42,32,34,26,21,82,57,32,30.02,29.86,29.65,10,10,10,24,9,31,0.01,2,Rain,182
2014-2-14,47,38,29,37,31,23,96,80,64,29.95,29.76,29.67,10,6,1,13,5,18,0.23,6,Rain-Snow,184
2014-2-15,38,32,26,32,30,24,92,84,76,29.97,29.59,29.40,10,4,0,14,3,16,0.41,6,Fog-Rain-Snow,168
2014-2-16,44,38,32,31,27,23,89,67,45,29.89,29.75,29.48,10,10,10,24,11,30,0.00,4,,171
2014-2-17,51,39,27,35,30,22,84,61,37,29.89,29.68,29.61,10,10,9,22,7,29,0.03,5,Rain,189
2014-2-18,38,31,23,34,29,20,100,82,64,29.96,29.73,29.46,10,9,5,14,7,18,0.12,5,Rain,196
2014-2-19,48,38,27,27,21,9,78,51,24,30.06,29.93,29.73,10,10,10,22,8,34,0.00,1,,202
2014-2-20,50,38,26,29,22,15,75,50,24,30.05,29.96,29.90,10,10,10,25,8,35,T,3,,229
2014-2-21,42,33,23,24,18,13,75,54,32,30.22,30.15,30.01,10,10,10,22,10,30,0.00,4,,345
2014-2-22,34,29,23,27,20,13,92,70,47,30.21,30.15,30.08,10,7,2,10,4,12,0.06,7,Snow,345
2014-2-23,31,28,25,27,25,21,92,85,78,30.19,30.09,30.02,10,5,1,18,10,23,0.16,8,Snow,351
2014-2-24,27,25,23,22,20,18,88,78,68,30.37,30.28,30.21,10,4,1,21,15,27,0.10,8,Snow,348
2014-2-25,30,25,19,17,14,10,74,66,58,30.50,30.42,30.35,10,10,10,18,13,24,0.00,3,,353
2014-2-26,33,26,18,20,17,13,81,66,51,30.34,30.16,29.93,10,10,10,13,8,18,0.00,5,,2
2014-2-27,39,32,24,26,22,18,81,68,54,29.92,29.80,29.74,10,10,10,13,6,16,T,6,,359
2014-2-28,45,38,31,25,21,17,78,57,36,29.81,29.75,29.69,10,10,10,21,13,27,0.00,6,,355